Tracking 22879 objects as of 21-Apr-2021
HD Live streaming from Space Station
objects crossing your sky now

COSMOS 1474

Track COSMOS 1474 now!
10-day predictions
COSMOS 1474 is classified as:


NORAD ID: 14172
Int'l Code: 1983-069B
Perigee: 1,418.0 km
Apogee: 1,470.0 km
Inclination: 74.0 °
Period: 114.6 minutes
Semi major axis: 7815 km
RCS: 0.7019 m2 (medium)
Launch date: July 6, 1983
Source: Commonwealth of Independent States (former USSR) (CIS)
Launch site: PLESETSK MISSILE AND SPACE COMPLEX (PKMTR)
aabbcc
Your satellite tracking list
Your tracking list is empty




NASA's NSSDC Master Catalog

Two Line Element Set (TLE):
1 14172U 83069B   21110.95580741  .00000000  00000-0  98619-4 0  9992
2 14172  74.0240  86.2143 0033301 339.4505  75.3619 12.56635022733700
Source of the keplerian elements: AFSPC